TimeEST,TemperatureF,Dew PointF,Humidity,Sea Level PressureIn,VisibilityMPH,Wind Direction,Wind SpeedMPH,Gust SpeedMPH,PrecipitationIn,Events,Conditions,WindDirDegrees,DateUTC
12:53 AM,26.1,19.0,75,30.08,10.0,NW,4.6,-,N/A,,Overcast,320,2013-01-01 05:53:00
1:53 AM,26.6,17.6,69,30.04,10.0,NNW,6.9,-,N/A,,Overcast,330,2013-01-01 06:53:00
2:53 AM,25.0,16.0,69,30.09,10.0,North,5.8,-,N/A,,Overcast,360,2013-01-01 07:53:00
3:53 AM,25.0,16.0,69,30.10,10.0,NNW,6.9,-,N/A,,Overcast,340,2013-01-01 08:53:00
4:53 AM,25.0,15.1,66,30.10,10.0,North,5.8,-,N/A,,Overcast,360,2013-01-01 09:53:00
5:53 AM,25.0,14.0,63,30.10,10.0,North,6.9,-,N/A,,Overcast,10,2013-01-01 10:53:00
6:53 AM,24.1,14.0,65,30.12,10.0,North,6.9,-,N/A,,Overcast,360,2013-01-01 11:53:00
7:53 AM,24.1,14.0,65,30.15,10.0,North,5.8,-,N/A,,Overcast,10,2013-01-01 12:53:00
8:53 AM,23.0,16.0,74,30.19,10.0,North,8.1,-,N/A,,Overcast,360,2013-01-01 13:53:00
9:53 AM,23.0,14.0,68,30.19,7.0,NNE,4.6,-,0.00,Snow,Light Snow,20,2013-01-01 14:53:00
10:53 AM,23.0,10.9,60,30.18,9.0,North,9.2,-,0.00,Snow,Light Snow,10,2013-01-01 15:53:00
11:53 AM,25.0,10.9,55,30.16,10.0,North,8.1,-,0.00,,Clear,10,2013-01-01 16:53:00
12:53 PM,26.1,10.9,53,30.15,10.0,Calm,Calm,-,N/A,,Clear,0,2013-01-01 17:53:00
1:53 PM,26.1,12.0,55,30.13,10.0,Calm,Calm,-,N/A,,Overcast,0,2013-01-01 18:53:00
2:53 PM,26.1,12.9,58,30.14,10.0,West,5.8,-,N/A,,Overcast,270,2013-01-01 19:53:00
3:53 PM,25.0,15.1,66,30.14,10.0,West,8.1,-,N/A,,Overcast,270,2013-01-01 20:53:00
4:53 PM,25.0,18.0,75,30.13,7.0,NW,8.1,-,0.00,Snow,Light Snow,310,2013-01-01 21:53:00
5:15 PM,24.8,17.6,74,30.09,8.0,NW,6.9,-,0.00,Snow,Light Snow,310,2013-01-01 22:15:00
5:22 PM,24.8,17.6,74,30.09,9.0,WNW,5.8,-,0.00,Snow,Light Snow,300,2013-01-01 22:22:00
5:53 PM,24.1,18.0,77,30.13,9.0,WNW,3.5,-,0.00,,Overcast,290,2013-01-01 22:53:00
6:53 PM,24.1,16.0,71,30.13,10.0,WNW,8.1,-,0.00,,Overcast,300,2013-01-01 23:53:00
7:53 PM,23.0,14.0,68,30.14,10.0,West,11.5,-,N/A,,Overcast,280,2013-01-02 00:53:00
8:53 PM,21.9,12.9,68,30.16,10.0,West,11.5,18.4,N/A,,Overcast,280,2013-01-02 01:53:00
9:53 PM,21.9,12.9,68,30.15,10.0,West,5.8,-,N/A,,Overcast,280,2013-01-02 02:53:00
10:53 PM,21.9,14.0,72,30.14,10.0,West,6.9,-,N/A,,Overcast,280,2013-01-02 03:53:00
11:53 PM,21.9,14.0,72,30.14,10.0,West,5.8,-,N/A,,Overcast,270,2013-01-02 04:53:00